Location: Cheyres
(46.8153°N, 6.7877°E)
Time: 14:35:18
(UTC+00:00)

FENGYUN 1C DEB - Pass Details

Date: 29 November 2021
Orbit: 843 x 915 km, 99.0° (Epoch: 18 January)

Event Time Altitude Azimuth Distance (km) Brightness Sun altitude
Exits shadow 18:46:03 27° 354° (N) 1,616 ? -29.9°
Drops below altitude 10° 18:48:28 10° 349° (N) 2,510 ? -30.3°
Sets 18:50:50 0° 348° (NNW) 3,442 ? -30.7°
